Date String (YYYY-MM-DD hh:mm:ss) UTC,Instrument flags,Ambient pressure (hPa),Sample flow (lpm),Bypass flow (lpm),Sample temperature (°C),Ambient temperature (°C),ASC tube jacket temperature (°C),LED temperature (°C),Box temperature (°C),Sample RH (%),Span deviation,Mass concentration (μg/m³),Mass concentration (μg/m³),Mass concentration (μg/m³)
DateTimeUTC,F1_M11,P_M11,Q1_M11,Q2_M11,T1_M11,T2_M11,T3_M11,T4_M11,T5_M11,U1_M11,ZSPAN_M11,X0_M11,X2_M11,X1_M11
2022-01-15 05:00:00,,0835.9,5.00,0.00,21.9,21.9,00.0,30.9,23.6,10.3,0000.0,0003.95,0002.02,0001.81
2022-01-15 05:01:00,,0835.9,4.99,0.00,21.9,21.8,00.0,30.9,23.6,10.2,0000.0,0003.98,0002.00,0001.80
2022-01-15 05:02:00,,0835.9,5.01,0.00,21.9,21.6,00.0,30.9,23.6,10.1,0000.0,0003.93,0001.97,0001.77
2022-01-15 05:03:00,,0835.9,4.99,0.00,21.9,21.5,00.0,30.9,23.5,10.1,0000.0,0003.94,0001.96,0001.75
2022-01-15 05:04:00,,0835.9,5.01,0.00,21.8,21.4,00.0,30.9,23.4,10.1,0000.0,0004.13,0002.00,0001.75
2022-01-15 05:05:00,,0835.8,5.00,0.00,21.8,21.3,00.0,30.9,23.4,10.1,0000.0,0004.11,0002.00,0001.77
2022-01-15 05:06:00,,0835.9,5.00,0.00,21.8,21.2,00.0,30.9,23.4,10.2,0000.0,0004.37,0002.03,0001.77
2022-01-15 05:07:00,,0835.9,4.99,0.00,21.7,21.1,00.0,30.8,23.3,10.3,0000.0,0003.87,0002.04,0001.78
2022-01-15 05:08:00,,0836.0,5.01,0.00,21.7,21.0,00.0,30.8,23.3,10.3,0000.0,0003.14,0002.05,0001.79
2022-01-15 05:09:00,,0835.9,4.99,0.00,21.6,20.9,00.0,30.8,23.2,10.3,0000.0,0003.09,0002.03,0001.80
2022-01-15 05:10:00,,0835.9,5.00,0.00,21.6,20.8,00.0,30.8,23.1,10.2,0000.0,0003.51,0002.04,0001.80
2022-01-15 05:11:00,,0835.9,5.01,0.00,21.5,20.8,00.0,30.7,23.1,10.3,0000.0,0004.30,0002.05,0001.79
2022-01-15 05:12:00,,0835.9,5.00,0.00,21.6,21.1,00.0,30.7,23.2,10.3,0000.0,0004.74,0002.06,0001.79
2022-01-15 05:13:00,,0835.9,4.99,0.00,21.7,22.0,00.0,30.8,23.5,10.3,0000.0,0004.88,0002.09,0001.80
2022-01-15 05:14:00,,0835.9,5.01,0.00,21.8,22.8,00.0,30.8,23.8,10.2,0000.0,0004.94,0002.10,0001.80
2022-01-15 05:15:00,,0835.9,5.00,0.00,22.0,22.8,00.0,30.8,23.9,10.2,0000.0,0004.84,0002.06,0001.80
2022-01-15 05:16:00,,0835.9,5.00,0.00,22.0,22.5,00.0,30.9,23.9,10.2,0000.0,0005.65,0002.07,0001.79
2022-01-15 05:17:00,,0835.9,4.99,0.00,22.0,22.2,00.0,30.9,23.7,10.2,0000.0,0005.60,0002.05,0001.79
2022-01-15 05:18:00,,0835.9,5.00,0.00,21.9,22.0,00.0,30.9,23.6,10.2,0000.0,0005.56,0002.05,0001.79
2022-01-15 05:19:00,,0835.9,5.01,0.00,21.8,21.8,00.0,30.9,23.5,10.3,0000.0,0005.61,0002.07,0001.80
2022-01-15 05:20:00,,0835.9,5.00,0.00,21.8,21.6,00.0,30.9,23.5,10.3,0000.0,0005.55,0002.07,0001.80
2022-01-15 05:21:00,,0835.9,5.00,0.00,21.8,21.5,00.0,30.9,23.5,10.2,0000.0,0005.23,0002.07,0001.81
2022-01-15 05:22:00,,0835.8,5.00,0.00,21.8,21.4,00.0,30.8,23.4,10.0,0000.0,0004.62,0002.10,0001.81
2022-01-15 05:23:00,,0835.8,5.00,0.00,21.7,21.2,00.0,30.8,23.3,10.1,0000.0,0004.30,0002.11,0001.81
2022-01-15 05:24:00,,0835.9,5.00,0.00,21.7,21.2,00.0,30.8,23.3,10.2,0000.0,0004.28,0002.09,0001.81
2022-01-15 05:25:00,,0835.9,5.01,0.00,21.7,21.1,00.0,30.8,23.2,10.2,0000.0,0004.17,0002.07,0001.81
2022-01-15 05:26:00,,0835.9,5.00,0.00,21.6,21.0,00.0,30.8,23.2,10.3,0000.0,0004.70,0002.09,0001.81
2022-01-15 05:27:00,,0836.0,5.01,0.00,21.6,20.9,00.0,30.8,23.2,10.3,0000.0,0004.28,0002.10,0001.83
2022-01-15 05:28:00,,0836.0,5.00,0.00,21.5,20.9,00.0,30.7,23.1,10.4,0000.0,0003.77,0002.14,0001.85
2022-01-15 05:29:00,,0836.0,5.00,0.00,21.5,20.8,00.0,30.7,23.1,10.5,0000.0,0003.75,0002.14,0001.85
2022-01-15 05:30:00,,0835.9,4.99,0.00,21.5,21.0,00.0,30.7,23.1,10.5,0000.0,0003.78,0002.15,0001.86
2022-01-15 05:31:00,,0835.9,5.01,0.00,21.6,21.9,00.0,30.7,23.4,10.5,0000.0,0003.82,0002.17,0001.87
2022-01-15 05:32:00,,0836.0,5.01,0.00,21.8,22.7,00.0,30.8,23.8,10.3,0000.0,0003.87,0002.20,0001.89
2022-01-15 05:33:00,,0836.0,4.98,0.00,21.9,22.8,00.0,30.8,23.9,10.3,0000.0,0003.79,0002.17,0001.91
2022-01-15 05:34:00,,0836.0,5.00,0.00,21.9,22.5,00.0,30.8,23.8,10.2,0000.0,0003.43,0002.16,0001.92
2022-01-15 05:35:00,,0836.0,5.01,0.00,21.9,22.2,00.0,30.8,23.7,10.3,0000.0,0003.39,0002.18,0001.95
2022-01-15 05:36:00,,0836.0,5.00,0.00,21.8,21.9,00.0,30.8,23.5,10.4,0000.0,0003.43,0002.22,0001.96
2022-01-15 05:37:00,,0835.9,5.00,0.00,21.8,21.7,00.0,30.8,23.4,10.4,0000.0,0002.90,0002.25,0001.98
2022-01-15 05:38:00,,0835.9,5.00,0.00,21.7,21.4,00.0,30.8,23.3,10.3,0000.0,0002.92,0002.27,0001.99
2022-01-15 05:39:00,,0836.0,5.00,0.00,21.7,21.3,00.0,30.8,23.2,10.2,0000.0,0003.03,0002.26,0001.98
2022-01-15 05:40:00,,0836.1,5.00,0.00,21.6,21.1,00.0,30.8,23.2,10.2,0000.0,0003.18,0002.28,0001.98
2022-01-15 05:41:00,,0836.1,5.01,0.00,21.6,21.1,00.0,30.8,23.2,10.2,0000.0,0003.10,0002.25,0001.98
2022-01-15 05:42:00,,0836.1,5.00,0.00,21.6,21.0,00.0,30.7,23.2,10.2,0000.0,0003.05,0002.23,0001.97
2022-01-15 05:43:00,,0836.1,5.00,0.00,21.5,20.9,00.0,30.7,23.1,10.2,0000.0,0003.01,0002.22,0001.96
2022-01-15 05:44:00,,0836.2,5.00,0.00,21.5,20.9,00.0,30.7,23.1,10.2,0000.0,0003.05,0002.23,0001.95
2022-01-15 05:45:00,,0836.2,5.01,0.00,21.5,20.8,00.0,30.7,23.0,10.2,0000.0,0003.30,0002.29,0001.96
2022-01-15 05:46:00,,0836.1,4.99,0.00,21.4,20.7,00.0,30.6,23.0,10.3,0000.0,0003.43,0002.31,0001.95
2022-01-15 05:47:00,,0836.0,5.00,0.00,21.5,21.3,00.0,30.7,23.2,10.3,0000.0,0003.54,0002.31,0001.94
2022-01-15 05:48:00,,0836.1,5.00,0.00,21.6,22.2,00.0,30.7,23.5,10.1,0000.0,0003.43,0002.27,0001.92
2022-01-15 05:49:00,,0836.1,4.99,0.00,21.8,22.9,00.0,30.7,23.8,10.0,0000.0,0003.67,0002.24,0001.91
2022-01-15 05:50:00,,0836.1,5.01,0.00,21.9,22.7,00.0,30.8,23.9,09.9,0000.0,0003.60,0002.20,0001.89
2022-01-15 05:51:00,,0836.1,5.00,0.00,21.9,22.4,00.0,30.8,23.8,09.9,0000.0,0003.48,0002.19,0001.89
2022-01-15 05:52:00,,0836.2,5.01,0.00,21.9,22.2,00.0,30.8,23.8,09.9,0000.0,0003.51,0002.19,0001.88
2022-01-15 05:53:00,,0836.1,5.00,0.00,21.9,22.0,00.0,30.8,23.7,09.9,0000.0,0003.56,0002.20,0001.88
2022-01-15 05:54:00,,0836.2,5.01,0.00,21.9,21.8,00.0,30.8,23.7,10.0,0000.0,0003.60,0002.18,0001.87
2022-01-15 05:55:00,,0836.1,4.99,0.00,21.9,21.7,00.0,30.8,23.5,10.0,0000.0,0004.31,0002.17,0001.86
2022-01-15 05:56:00,,0836.2,5.00,0.00,21.8,21.5,00.0,30.8,23.4,10.0,0000.0,0004.50,0002.14,0001.87
2022-01-15 05:57:00,,0836.2,4.99,0.00,21.7,21.3,00.0,30.8,23.3,10.1,0000.0,0004.39,0002.09,0001.85
2022-01-15 05:58:00,,0836.1,5.00,0.00,21.7,21.2,00.0,30.8,23.2,10.1,0000.0,0005.10,0002.10,0001.85
2022-01-15 05:59:00,,0836.2,5.01,0.00,21.6,21.1,00.0,30.7,23.2,10.0,0000.0,0005.12,0002.08,0001.85
